This is the latest recevied weather packets stored in our database for station/object IZ1UKX-13. If no packets are shown the sender has not sent any weather packets the latest 10 day(s).
| Time | Temp. | Humidity | Pressure | Rain* | Wind** | Luminosity | Snow |
|---|---|---|---|---|---|---|---|
| 1777624152 | 17.22° C | 49% | 1023.6 hPa | 0 mm | - | 0 W/m² | - |
| 1777623852 | 16.67° C | 50% | 1023.6 hPa | 0 mm | - | 0 W/m² | - |
| 1777623552 | 16.11° C | 50% | 1024 hPa | 0 mm | - | 0 W/m² | - |
| 1777623252 | 16.11° C | 49% | 1024 hPa | 0 mm | - | 0 W/m² | - |
| 1777622952 | 16.67° C | 50% | 1023.6 hPa | 0 mm | - | 0 W/m² | - |
| 1777622651 | 16.11° C | 49% | 1024 hPa | 0 mm | - | 0 W/m² | - |
| 1777622352 | 16.67° C | 48% | 1023.6 hPa | 0 mm | - | 0 W/m² | - |
| 1777622052 | 17.22° C | 45% | 1023.6 hPa | 0 mm | - | 0 W/m² | - |
| 1777621752 | 18.89° C | 42% | 1023.2 hPa | 0 mm | - | 0 W/m² | - |
| 1777621452 | 18.33° C | 45% | 1023.6 hPa | 0 mm | - | 0 W/m² | - |
| 1777621152 | 16.67° C | 47% | 1023.6 hPa | 0 mm | - | 0 W/m² | - |
| 1777620852 | 16.67° C | 46% | 1024 hPa | 0 mm | - | 0 W/m² | - |
| 1777620552 | 16.67° C | 46% | 1024 hPa | 0 mm | - | 0 W/m² | - |
| 1777620526 | 16.67° C | 46% | 1023.6 hPa | 0 mm | - | 0 W/m² | - |
| 1777620226 | 17.78° C | 43% | 1023.6 hPa | 0 mm | - | 0 W/m² | - |
| 1777619926 | 17.78° C | 44% | 1023.6 hPa | 0 mm | - | 0 W/m² | - |
| 1777619626 | 17.78° C | 44% | 1023.6 hPa | 0 mm | - | 0 W/m² | - |
| 1777619326 | 16.67° C | 46% | 1023.6 hPa | 0 mm | - | 0 W/m² | - |
| 1777619026 | 16.11° C | 49% | 1024 hPa | 0 mm | - | 0 W/m² | - |
| 1777618726 | 15° C | 51% | 1024 hPa | 0 mm | - | 0 W/m² | - |
| 1777618426 | 14.44° C | 51% | 1024 hPa | 0 mm | - | 0 W/m² | - |
| 1777618127 | 13.89° C | 52% | 1024.5 hPa | 0 mm | - | 0 W/m² | - |
| 1777617827 | 14.44° C | 51% | 1024.5 hPa | 0 mm | - | 0 W/m² | - |
| 1777617526 | 13.89° C | 53% | 1024.5 hPa | 0 mm | - | 0 W/m² | - |
| 1777617226 | 12.78° C | 55% | 1024.5 hPa | 0 mm | - | 0 W/m² | - |
* Rain latest hour (hover to see other rain measurements)
** Current wind speed in m/s (hover to see current wind gust speed)